TimePST,TemperatureF,Dew PointF,Humidity,Sea Level PressureIn,VisibilityMPH,Wind Direction,Wind SpeedMPH,Gust SpeedMPH,PrecipitationIn,Events,Conditions,WindDirDegrees,DateUTC
12:54 AM,57.9,50.0,75,-9999,-9999.0,West,13.8,-,N/A,,Partly Cloudy,270,2014-01-31 08:54:00
1:54 AM,57.9,48.0,70,-9999,-9999.0,West,11.5,-,N/A,,Partly Cloudy,270,2014-01-31 09:54:00
2:54 AM,57.0,48.0,72,-9999,-9999.0,WNW,6.9,-,N/A,,Partly Cloudy,290,2014-01-31 10:54:00
3:54 AM,57.0,46.0,67,-9999,-9999.0,WNW,12.7,-,N/A,,Clear,290,2014-01-31 11:54:00
4:54 AM,57.0,46.0,67,-9999,-9999.0,West,10.4,-,N/A,,Clear,280,2014-01-31 12:54:00
5:54 AM,57.0,45.0,64,-9999,-9999.0,West,13.8,20.7,N/A,,Clear,280,2014-01-31 13:54:00
6:45 AM,57.0,45.0,64,29.91,7.0,WNW,13.8,20.7,N/A,,Mostly Cloudy,300,2014-01-31 14:45:00
6:54 AM,57.0,43.0,59,29.91,7.0,WNW,10.4,20.7,N/A,,Mostly Cloudy,300,2014-01-31 14:54:00
7:54 AM,55.0,45.0,69,29.94,7.0,North,3.5,-,N/A,,Mostly Cloudy,360,2014-01-31 15:54:00
8:54 AM,59.0,46.9,64,29.96,7.0,West,16.1,25.3,N/A,,Mostly Cloudy,280,2014-01-31 16:54:00
9:54 AM,60.1,45.0,57,29.97,7.0,Variable,4.6,-,N/A,,Mostly Cloudy,0,2014-01-31 17:54:00
10:35 AM,61.0,45.0,56,29.97,7.0,Variable,3.5,-,N/A,,Mostly Cloudy,0,2014-01-31 18:35:00
10:54 AM,63.0,45.0,52,29.97,7.0,NNW,6.9,-,N/A,,Mostly Cloudy,330,2014-01-31 18:54:00
11:54 AM,66.0,44.1,45,29.95,7.0,Variable,5.8,17.3,N/A,,Mostly Cloudy,0,2014-01-31 19:54:00
12:54 PM,66.0,43.0,43,29.92,7.0,West,11.5,-,N/A,,Mostly Cloudy,260,2014-01-31 20:54:00
1:54 PM,64.0,45.0,50,29.91,7.0,West,16.1,-,N/A,,Mostly Cloudy,280,2014-01-31 21:54:00
2:54 PM,64.9,48.9,56,29.90,7.0,West,12.7,-,N/A,,Mostly Cloudy,270,2014-01-31 22:54:00
3:54 PM,64.9,50.0,58,29.90,7.0,West,18.4,-,N/A,,Mostly Cloudy,260,2014-01-31 23:54:00
4:54 PM,61.0,51.1,70,29.91,7.0,West,19.6,-,N/A,,Scattered Clouds,260,2014-02-01 00:54:00
5:54 PM,60.1,48.9,67,29.92,7.0,West,11.5,-,N/A,,Mostly Cloudy,270,2014-02-01 01:54:00
6:54 PM,62.1,30.0,30,29.93,7.0,NNW,6.9,-,N/A,,Mostly Cloudy,330,2014-02-01 02:54:00
7:54 PM,59.0,30.0,33,29.94,7.0,North,5.8,-,N/A,,Scattered Clouds,360,2014-02-01 03:54:00
8:54 PM,55.0,32.0,42,29.95,7.0,North,3.5,-,N/A,,Partly Cloudy,10,2014-02-01 04:54:00
9:54 PM,52.0,36.0,54,29.96,7.0,NE,3.5,-,N/A,,Clear,50,2014-02-01 05:54:00
10:54 PM,52.0,37.0,57,29.98,7.0,Calm,Calm,-,N/A,,Clear,0,2014-02-01 06:54:00
11:54 PM,48.0,36.0,63,-9999,-9999.0,NNE,6.9,-,N/A,,Clear,20,2014-02-01 07:54:00